Location: Los Ranchitos
(37.9930°N, 122.5425°W)
Time: 03:34:36
(UTC+00:00)

Daily predictions for brighter satellites

Satellite Brightness Start Highest point End
(mag) Time Altitude Azimuth Time Altitude Azimuth Time Altitude Azimuth
Cosmos 1603 3.7 02:27:32 10° NNW 02:33:09 63° ENE 02:38:42 10° SSE
Cosmos 2233 Rocket 4.0 02:27:23 10° S 02:33:38 86° E 02:39:51 10° N
SJ 16-02 3.6 02:32:06 10° SW 02:35:55 29° WNW 02:39:46 10° N
Sich 1 Rocket 4.1 02:33:52 10° SSE 02:38:00 39° E 02:42:13 10° NNE
Cosmos 1975 2.9 02:34:15 10° S 02:38:20 89° W 02:42:26 10° N
H-2A R/B 2.8 02:35:06 10° SE 02:39:24 31° ENE 02:43:49 10° N
Okean 2 3.4 02:35:56 10° N 02:40:05 67° E 02:44:11 10° SSE
Meteor 1-21 4.3 02:34:58 10° N 02:40:27 54° ENE 02:45:54 10° SSE
NOSS 2-2 (E) 3.5 02:38:08 10° SW 02:41:36 66° WNW 02:45:17 10° NNE
Cosmos 1842 3.2 02:40:11 10° N 02:44:03 69° E 02:47:53 10° SSE
ATLAS 2AS CENTAUR R/B 4.2 02:43:03 10° SE 02:47:46 17° ESE 02:52:29 10° ENE
BREEZE-M DEB (TANK) 3.9 02:45:49 10° NNW 02:48:31 28° NE 02:54:12 11° E
CZ-4 R/B 1.5 02:44:52 10° SSE 02:49:06 85° ENE 02:53:18 10° N
NOSS 2-2 (D) 3.3 02:47:06 10° SW 02:50:37 70° NW 02:54:15 10° NNE
Cosmos 1707 3.5 02:50:37 10° NNE 02:54:01 29° ENE 02:57:23 10° SE
USA 116 3.6 02:50:29 10° NNE 02:54:06 77° ESE 02:58:10 10° S
Okean 2 Rocket 3.6 02:50:12 10° SSE 02:54:19 36° E 02:58:26 10° NNE
CENTAUR R/B 4.3 02:49:07 10° NNW 02:55:28 25° NE 03:01:27 12° E
Cosmos 1300 Rocket 4.1 02:52:38 10° SSE 02:56:40 37° E 03:00:45 10° NNE
Ariane Rocket 4.2 02:56:56 13° ESE 03:00:08 22° ENE 03:03:59 10° NNE
Cosmos 1437 3.0 03:01:56 10° NNW 03:04:54 64° W 03:07:51 10° S
Okean-O 3.5 03:00:43 10° S 03:05:02 54° W 03:09:24 10° NNW
DELTA 2 R/B (1) 3.8 02:59:53 10° WNW 03:05:22 64° SSW 03:09:53 15° ESE
YAOGAN 1 2.8 03:01:46 10° S 03:06:04 74° WSW 03:10:24 10° NNW
SJ-6B 4.3 03:08:51 16° ENE 03:09:01 16° ENE 03:11:23 10° NNE
ARGOS 3.4 03:04:27 10° SE 03:09:33 47° ENE 03:14:40 10° N
ATLAS 5 CENTAUR R/B 2.8 03:06:24 10° NW 03:09:53 84° NE 03:21:55 10° SE
SL-08 RB Rocket 4.5 03:09:03 15° SE 03:12:12 32° ENE 03:16:15 10° N
USA 186 3.0 03:14:50 22° ENE 03:14:50 22° ENE 03:17:21 10° NNE
CZ-2C R/B 3.2 03:11:48 10° SSE 03:16:59 84° WSW 03:22:30 10° NNW
CZ-2C R/B 3.2 03:12:21 10° NNE 03:17:29 37° E 03:22:37 10° SSE
Cosmos 2298 Rocket 4.0 03:12:28 10° S 03:17:44 66° ESE 03:23:01 10° NNE
Cosmos 1536 Rocket 4.2 03:16:51 10° NNE 03:20:54 34° ENE 03:22:45 24° ESE
MOS 1 Rocket 3.0 03:18:23 10° NNE 03:22:47 88° ESE 03:27:04 10° SSW
ISS -1.5 03:22:45 10° W 03:25:29 22° NNW 03:28:14 10° NNE
Cosmos 1025 Rocket 3.2 03:21:18 10° N 03:25:36 52° E 03:28:46 17° SSE
Cosmos 372 Rocket 4.3 03:20:54 10° SSW 03:26:07 68° WNW 03:31:21 10° NNE
Cosmos 1513 Rocket 4.5 03:21:24 10° S 03:27:42 89° E 03:33:55 10° N
Cosmos 2285 Rocket 4.2 03:26:34 10° S 03:32:31 47° ESE 03:38:31 10° NNE
Cosmos 1844 3.7 03:27:30 10° S 03:33:06 58° ESE 03:38:38 10° NNE
Cosmos 2151 Rocket 3.4 03:31:36 10° S 03:36:01 78° E 03:40:30 10° N
Cosmos 1844 Rocket 2.5 03:31:52 10° SSW 03:37:24 80° ESE 03:43:00 10° NNE
Cosmos 1464 Rocket 4.1 03:31:47 10° S 03:37:53 79° W 03:44:05 10° N
Cosmos 1867 3.6 03:33:19 10° NNW 03:38:47 84° WSW 03:42:27 21° SSE
NOSS 3-2 (A) 4.3 03:31:47 10° NNW 03:39:18 55° NE 03:43:55 28° ESE
CZ-2C R/B 1.2 03:37:37 10° W 03:41:07 47° S 03:41:25 46° SSE
Cosmos 2150 Rocket 4.3 03:41:31 10° SSW 03:46:51 73° WNW 03:52:18 10° NNE
Cosmos 1092 Rocket 4.3 03:42:32 10° N 03:48:21 41° ENE 03:49:45 36° ESE
MetOp-A 4.3 03:49:02 39° ESE 03:50:38 53° ENE 03:55:51 10° N
Cosmos 1125 Rocket 3.4 03:45:27 10° SSW 03:50:44 80° ESE 03:56:05 10° NNE
MOS 1 4.2 03:53:26 34° SE 03:55:53 66° ENE 04:01:33 10° N
USA 234 3.2 03:52:10 12° NE 03:58:13 63° SE 04:04:42 10° SSW
DMSP B5D2-2 3.9 03:54:07 10° NNE 03:59:26 77° ESE 04:04:42 10° S
Cosmos 1674 3.5 04:01:01 10° N 04:03:41 42° NNE 04:03:41 42° NNE
Resurs 01 Rocket 3.5 04:14:24 20° NNE 04:14:24 20° NNE 04:16:06 10° N
NOSS 3-2 (C) 4.2 04:07:29 10° NNW 04:15:05 59° NE 04:17:17 46° ESE
NOSS 3-4 (A) 3.2 04:09:23 10° SSW 04:15:12 70° ESE 04:21:18 10° NE
NOSS 3-4 (C) 3.2 04:09:31 10° SSW 04:15:18 69° ESE 04:17:39 38° NE
H-2A R/B 3.9 04:14:40 10° SSW 04:18:48 27° W 04:23:02 10° NW
Cosmos 1048 Rocket 4.2 04:17:18 10° NNW 04:22:36 68° WSW 04:23:43 53° SSW
OBJECT-B 3.8 04:29:43 12° NNW 04:29:43 12° NNW 04:29:56 10° NNW
Okean 1 Rocket 3.7 04:30:29 56° WNW 04:30:29 56° WNW 04:34:43 10° N
ATLAS 2AS CENTAUR R/B 2.9 04:29:50 10° SSW 04:37:44 88° ESE 04:45:43 10° NNE
Ariane Rocket 4.1 04:37:08 31° SW 04:38:48 40° W 04:43:35 10° NNW
Milstar 3 Cent rocket 3.9 04:40:17 10° WSW 04:43:05 21° SW 04:43:05 21° SW
CENTAUR R/B 3.1 04:39:01 10° NNW 04:47:23 83° ENE 04:48:39 69° SE
Cosmos 2082 Rocket 4.3 04:45:44 10° N 04:47:12 15° NNE 04:47:12 15° NNE
Meteor 2-5 Rocket 4.1 04:47:43 10° NNW 04:52:52 63° WNW 04:52:52 63° WNW
ATLAS 3B R/B 3.7 04:49:21 10° NNW 04:54:32 33° NNE 04:54:32 33° NNE
USA 238 DEB 4.3 04:56:18 10° NW 05:03:23 54° WSW 05:04:13 52° SW
USA 238 4.3 04:56:24 10° NW 05:03:30 55° WSW 05:04:18 53° SW
USA 234 4.3 05:39:40 36° N 05:40:59 39° NNW 05:46:57 10° W
USA 267 4.5 10:06:13 10° NE 10:09:48 35° ENE 10:09:48 35° ENE
Cosmos 1980 Rocket 3.9 10:34:34 30° NE 10:34:34 30° NE 10:37:30 10° NNE
SL-16 R/B 4.4 10:47:26 17° ESE 10:48:46 18° E 10:52:31 10° ENE
ADEOS II 4.1 10:48:25 10° N 10:50:02 20° N 10:50:02 20° N
ARIANE 5 R/B 4.2 10:50:30 10° NNE 10:53:01 29° NNE 10:53:01 29° NNE
IDEFIX/ARIANE 42P 3.7 10:57:09 10° NNE 11:00:51 42° NE 11:00:51 42° NE
SJ 16-02 4.0 11:02:47 10° NNE 11:05:50 18° ENE 11:08:52 10° ESE
H-2A R/B 4.4 11:09:27 10° ESE 11:12:51 23° ENE 11:16:18 10° NNE
Cosmos 1238 Rocket 4.3 11:09:35 10° N 11:16:03 61° E 11:17:48 44° SE
X-37B 4.1 11:23:27 12° NE 11:23:27 12° NE 11:23:47 10° ENE
Lacrosse 5 3.7 11:24:36 22° N 11:24:36 22° N 11:27:26 10° NNE
Cosmos 921 Rocket 3.9 11:56:57 37° NNW 11:56:57 37° NNW 11:59:43 10° N
Cosmos 1812 3.5 11:56:57 43° N 11:56:57 43° N 11:59:37 10° N
